Starlink 31345

operational
NORAD ID: 58941 Int'l Des: 2024-027 Owner: SPXS Country: US Constellation: starlink
LEOCIRCULAR

Starlink 31345について

説明を読み込み中...

リアルタイム位置

3D地球を読み込み中...

次回通過

高度履歴

Altitude vs Time

uPlot chart will show altitude changes over time

軌道要素

1 58941U 24027L 25353.23890807 -.00000355 00000-0 14058-6 0 9995
2 58941 53.1625 323.1191 0001299 92.1297 267.9853 15.30186992105013
Epoch: Dec 19, 2025 • Age: 11 hours

現在のステータス

高度 494.6 km
速度 7.62 km/s
衛星直下点 -53.16°S, 107.92°W
打ち上げ日 Feb 10, 2024
運用期間 1.8 years
タイプ internet

技術仕様

分類 Payload
質量 730.00 kg
乾燥質量 700.00 kg
総質量 730.00 kg
長さ 0.30 m
直径 4.10 m
スパン 29.00 m
形状 Box + pan
製造者 SPXS
バスタイプ Starlink V2M
フェーズステータス In Orbit
所有者/国 SPXS/US

大規模コンステレーション

Loading constellations...